Skip Page Navigation
NASA JPL Caltech
NASA Logo - Jet Propulsion Laboratory + View the NASA Portal
+ Center for Near-Earth Object Studies
JPL Home Earth Solar System Stars & Galaxies Technology
JPL Solar System Dynamics
BODIES ORBITS EPHEMERIDES TOOLS PHYSICAL DATA DISCOVERY FAQ SITE MAP
IMPORTANT: The SSD Announcement email list is now available. Major changes are coming in the near future, including possible hostname and/or URL changes. To be notified of such changes, subscribe to this email list.

Please visit this page for more details.


JPL Small-Body Database Browser
Search: [ help ]  
245050 (2004 FA79)
Classification: Main-belt Asteroid          SPK-ID: 2245050
Ephemeris | Orbit Diagram | Orbital Elements | Mission Design | Physical Parameters | Discovery Circumstances | Close-Approach Data ]

[ show orbit diagram ]
Orbital Elements at Epoch 2459000.5 (2020-May-31.0) TDB
Reference: JPL 10 (heliocentric ecliptic J2000)
 Element Value Uncertainty (1-sigma)   Units 
e .1067027981134135 9.8482e-08  
a 3.106303555192841 3.8403e-08 au
q 2.77485227406412 3.1432e-07 au
i .4635225471748521 8.0505e-06 deg
node 53.96314823497077 0.00091713 deg
peri 159.1667267338421 0.00091766 deg
M 323.3985891618062 3.3008e-05 deg
tp 2459203.810399029642
(2020-Dec-20.31039903)
0.00018505 TDB
period 1999.697333368776
5.47
3.7083e-05
1.015e-07
d
yr
n .1800272441197531 3.3385e-09 deg/d
Q 3.437754836321561 4.2501e-08 au
  Orbit Determination Parameters
   # obs. used (total)      139  
   data-arc span      8041 days (22.02 yr)  
   first obs. used      1998-01-24  
   last obs. used      2020-01-30  
   planetary ephem.      DE431  
   SB-pert. ephem.      SB431-N16  
   condition code      0  
   norm. resid. RMS      .64658  
   source      ORB  
   producer      Otto Matic  
   solution date      2020-Feb-25 09:39:20  

Additional Information
 Earth MOID = 1.76862 au 
 Jupiter MOID = 1.52795 au 
 T_jup = 3.212 
[ show covariance matrix ]

Ephemeris | Orbit Diagram | Orbital Elements | Mission Design | Physical Parameters | Discovery Circumstances | Close-Approach Data ]

Physical Parameter Table
Parameter Symbol Value Units Sigma Reference Notes
absolute magnitude H 16.5   n/a MPO422951  

245050 (2004 FA79)          Discovered 2004-Mar-19 by Spacewatch at Kitt Peak
Reference: 20100726/Numbers.arcLast Updated: 2010-07-28

[ show close-approach data ]
Ephemeris | Orbit Diagram | Orbital Elements | Mission Design | Physical Parameters | Discovery Circumstances | Close-Approach Data ]
ABOUT SSD CREDITS/AWARDS PRIVACY/COPYRIGHT GLOSSARY LINKS
FirstGov 2020-Mar-28 16:28 UT
(server date/time)  
NASA Home Page
Site Manager:   Ryan S. Park
Webmaster  Alan B. Chamberlin